Wind_Speed
9 9 9 9 9 9 9 10 10 11 12 12 13 13 14 14 15 15 16 17 17 17 17 18 18 18 18 18 18 18 18 18 18 18 18 18 18 18 18 18 19 19 19
10 10 9 9 9 10 10 11 11 12 13 13 13 14 14 15 15 15 16 17 18 18 19 19 19 19 18 18 18 18 18 18 18 18 18 18 18 18 18 18 19 19 19
10 10 10 10 11 11 12 12 12 13 13 13 14 14 15 15 16 17 18 18 18 18 18 18 18 18 18 18 18 18 18 18 18 18 18 18 18 19 19 19 19 20 20
11 11 11 12 12 12 13 13 13 13 13 14 15 15 16 17 17 18 18 18 18 18 18 18 18 19 19 19 19 20 20 20 20 19 20 20 20 20 21 21 21 21 21
11 11 12 12 12 12 12 13 13 14 15 16 17 17 17 18 18 18 19 19 19 18 19 19 19 20 21 21 22 22 22 22 22 22 22 23 23 23 23 23 23 23 23
11 11 11 11 11 12 13 15 15 16 16 16 17 17 18 18 19 19 19 19 20 20 20 21 21 22 23 23 24 24 24 25 25 25 25 25 26 26 26 26 26 26 25
11 11 11 12 13 14 15 16 16 16 17 17 18 18 19 19 19 19 20 20 21 21 22 22 23 23 24 24 25 25 26 26 26 27 27 28 28 28 28 28 29 29 28
12 12 13 14 15 16 17 17 17 17 18 18 18 19 19 19 19 20 21 21 22 23 23 24 24 25 25 25 26 26 26 27 27 28 28 29 29 30 30 30 31 31 31
13 14 15 15 16 16 16 16 17 17 18 18 19 19 20 20 21 21 22 23 23 23 24 24 25 25 26 26 27 27 27 27 28 28 29 30 30 30 31 31 32 32 33
14 15 15 15 15 16 17 17 18 18 19 19 20 20 21 21 22 23 23 24 24 24 25 25 26 26 26 27 27 28 28 29 29 29 30 31 31 31 32 32 33 33 34
14 15 15 16 16 17 18 18 19 20 20 21 21 22 22 23 24 24 25 25 25 26 26 27 27 27 27 28 28 29 29 30 30 30 31 32 32 32 33 33 34 34 35
15 16 16 17 18 18 19 20 21 21 22 22 23 23 23 24 25 25 26 26 27 27 28 28 28 29 29 29 29 30 30 31 31 30 31 33 33 33 34 34 35 35 36
17 18 18 18 19 20 21 21 22 23 23 23 24 24 25 25 26 26 27 27 28 28 29 29 30 30 30 30 31 31 32 32 32 32 32 34 34 35 35 36 36 37 37
19 20 20 21 21 22 22 22 23 24 25 25 25 26 27 27 27 28 28 28 29 30 30 31 31 31 32 32 32 33 33 33 34 34 34 35 36 37 37 37 38 38 39
21 22 22 23 24 24 24 24 25 25 26 27 27 28 28 29 29 29 29 30 30 31 31 32 32 33 33 34 34 34 34 34 35 36 36 36 37 38 38 38 39 39 40
23 23 24 25 25 26 27 27 27 27 27 28 29 29 29 30 31 31 31 31 32 32 33 33 34 34 35 35 35 35 36 37 37 37 37 37 38 38 38 39 39 40 40
25 26 26 27 28 28 29 29 29 29 29 29 30 30 31 32 32 32 32 33 33 34 34 35 35 36 36 36 37 37 38 38 38 39 39 39 38 39 39 40 40 41 42
28 28 29 30 30 30 31 31 30 31 31 31 31 32 32 33 33 33 34 34 35 35 36 36 36 37 37 38 38 39 39 40 40 40 40 40 39 39 40 41 41 42 42
31 31 32 32 33 32 32 32 33 33 33 32 32 33 34 34 34 34 35 36 36 36 37 37 37 38 39 39 39 40 40 41 41 41 41 41 41 41 41 42 42 43 43
34 34 34 34 35 34 34 34 34 34 34 34 34 34 34 34 35 35 36 36 37 37 38 38 39 39 40 40 40 41 42 42 43 43 43 43 43 43 43 43 43 44 44
36 36 36 36 36 36 35 35 35 35 35 35 35 35 35 35 36 36 36 37 37 38 39 39 40 40 41 41 41 42 43 43 44 44 44 44 44 44 44 45 45 45 46
37 37 37 37 37 37 36 36 36 36 36 36 36 36 36 36 36 36 37 37 38 39 40 40 41 41 42 42 43 43 43 43 44 44 45 45 45 45 46 46 46 47 47
37 37 38 37 37 37 37 37 37 37 37 37 36 36 36 36 36 37 37 38 39 40 40 41 41 42 43 44 45 45 44 44 44 44 45 45 45 46 46 47 47 47 47
38 38 38 37 37 37 38 38 38 38 37 37 37 37 37 36 37 37 38 39 40 40 41 41 43 43 44 45 46 46 46 46 45 44 44 45 45 45 46 47 48 48 49
37 37 38 38 37 38 38 38 38 37 37 37 36 36 36 37 37 38 39 39 40 40 41 42 43 44 45 46 47 47 47 47 47 46 44 44 45 46 46 47 48 49 50
37 37 37 38 38 38 38 38 37 37 37 36 36 36 37 37 37 39 39 39 40 41 42 43 45 46 47 48 48 48 48 47 47 47 46 45 45 45 47 47 48 49 50
Wind_Direction
237 244 251 258 264 271 277 283 287 291 293 295 298 299 300 301 302 302 303 303 302 302 301 300 299 298 297 296 296 295 294 293 292 290 288 287 286 285 284 283 282 281 280
241 247 253 260 266 273 280 284 288 291 293 296 298 300 302 302 302 303 303 303 302 301 300 299 298 296 296 295 294 293 292 291 290 289 287 286 284 283 282 281 279 279 278
246 251 257 263 269 275 280 284 288 291 294 296 298 301 303 302 302 303 302 302 301 300 299 298 297 296 295 294 293 291 291 290 289 288 287 285 284 283 282 280 279 278 277
249 255 261 267 272 277 281 284 288 291 293 296 298 300 301 301 301 301 301 300 300 299 297 297 295 295 293 292 291 290 289 288 287 286 285 284 283 282 281 280 279 278 276
252 260 265 269 273 277 281 285 289 293 293 295 296 298 298 298 299 300 299 299 298 297 296 295 295 294 292 291 290 289 288 287 286 285 284 283 282 281 281 280 279 278 276
256 261 266 270 275 279 283 287 290 292 293 294 295 296 297 297 297 298 298 297 297 295 295 294 293 292 292 291 290 289 288 288 287 286 284 283 282 282 281 280 279 278 277
256 261 267 272 277 281 284 286 288 290 292 293 294 295 295 295 295 296 296 296 295 294 294 293 293 292 292 291 290 290 289 289 288 287 286 284 283 282 282 281 280 279 278
259 265 271 275 278 282 284 286 287 288 290 292 293 295 295 295 295 295 296 295 294 293 293 293 292 292 291 290 290 290 290 289 289 288 287 286 284 283 282 281 280 279 278
262 268 273 276 279 282 284 286 288 289 291 292 294 295 295 295 295 295 295 295 294 293 292 292 292 291 290 290 289 289 289 289 289 289 288 287 286 284 283 281 280 279 278
266 271 275 278 281 284 286 287 289 290 292 293 294 295 295 295 295 295 295 295 294 293 292 292 292 291 290 289 289 289 290 290 289 289 288 287 286 285 284 282 281 280 279
271 274 278 280 283 286 287 289 289 290 292 293 293 294 294 295 295 295 295 294 293 292 292 292 291 291 290 290 290 290 291 291 290 290 289 288 287 285 284 284 282 281 280
274 277 280 282 285 287 289 290 290 291 292 292 293 293 294 295 295 295 295 294 292 292 291 291 291 290 290 290 290 291 291 291 291 291 290 289 288 287 286 285 284 283 282
276 279 283 285 287 289 290 291 291 292 292 292 292 293 294 295 295 295 294 293 292 292 291 291 291 290 290 290 290 291 291 291 291 291 290 290 289 288 287 286 285 284 283
277 281 285 287 289 290 291 292 293 293 292 291 292 293 294 295 295 295 294 293 293 292 292 291 291 291 290 291 291 291 291 291 291 291 291 290 289 288 287 287 285 284 283
278 282 286 288 290 291 292 293 293 293 292 292 292 292 293 294 295 294 294 293 292 292 292 291 291 291 291 291 292 292 292 292 292 292 291 291 290 289 287 286 286 285 284
279 282 285 288 290 292 292 292 292 292 292 292 292 292 293 294 294 294 294 293 292 292 292 292 292 293 292 292 292 292 292 293 293 292 292 291 291 290 288 287 286 285 284
281 282 284 287 289 290 291 291 291 291 291 291 291 291 292 293 293 293 293 292 292 292 292 293 293 293 293 293 293 293 293 294 293 293 292 292 291 290 289 287 286 285 283
282 283 284 286 288 289 290 290 290 290 290 290 290 291 292 292 292 292 292 292 292 292 293 293 294 294 294 294 294 295 295 295 295 294 294 293 291 290 289 288 287 285 283
281 282 283 285 286 288 289 289 289 289 288 288 290 291 291 291 291 291 291 291 291 292 293 294 294 295 295 295 295 296 296 296 296 295 294 293 292 291 290 289 288 286 285
280 281 282 283 285 287 288 288 288 287 287 288 289 289 290 290 290 291 291 292 292 293 294 294 294 295 295 295 296 296 297 297 296 295 295 294 293 292 291 290 289 287 286
278 280 282 283 284 286 287 286 286 286 287 287 287 288 288 289 289 290 291 292 293 294 294 294 295 295 296 296 297 297 298 298 297 296 296 295 294 293 292 291 290 289 288
277 279 281 283 284 285 285 285 285 286 286 286 286 287 287 288 289 290 291 291 293 294 294 294 295 295 296 297 298 298 298 298 298 298 297 296 295 295 294 293 292 291 289
277 279 280 281 282 283 284 284 284 285 285 285 285 285 286 288 289 290 291 291 293 294 294 294 295 296 297 299 299 299 299 298 298 298 297 296 296 296 296 295 294 293 292
277 278 279 280 281 282 283 283 284 284 284 284 284 285 286 287 288 289 290 291 293 294 294 295 297 298 299 300 300 300 300 300 299 298 297 297 296 296 295 295 294 294 293
276 277 278 279 280 281 282 282 282 282 283 283 283 284 286 287 288 290 291 292 293 294 295 297 298 299 300 301 301 301 301 301 300 299 298 297 297 297 296 295 294 294 293
276 277 278 279 280 281 281 281 281 281 282 283 283 284 286 287 289 290 291 292 293 295 296 298 299 300 301 302 302 302 302 301 301 300 299 298 298 297 297 296 295 294 294
Height
5879 5880 5881 5882 5882 5883 5884 5884 5884 5884 5884 5884 5884 5883 5883 5882 5881 5881 5880 5880 5879 5878 5877 5876 5876 5875 5874 5873 5872 5871 5870 5869 5868 5868 5867 5866 5865 5865 5864 5864 5863 5863 5862
5878 5879 5880 5880 5881 5882 5882 5882 5883 5883 5882 5882 5882 5881 5880 5880 5879 5878 5878 5877 5876 5875 5874 5874 5873 5872 5871 5870 5869 5868 5867 5866 5865 5864 5864 5863 5862 5861 5861 5860 5859 5859 5858
5877 5877 5878 5879 5880 5880 5880 5880 5880 5880 5880 5880 5879 5879 5878 5877 5877 5876 5875 5874 5873 5872 5872 5871 5870 5869 5868 5866 5865 5865 5864 5863 5862 5861 5860 5859 5859 5858 5857 5856 5856 5855 5854
5875 5876 5877 5877 5878 5878 5878 5878 5878 5878 5878 5877 5877 5876 5876 5875 5874 5873 5872 5871 5870 5869 5868 5868 5867 5865 5864 5863 5862 5861 5860 5859 5859 5858 5857 5856 5855 5854 5853 5852 5852 5851 5850
5874 5874 5875 5875 5876 5876 5876 5876 5876 5876 5875 5875 5874 5874 5873 5872 5871 5870 5869 5868 5867 5866 5865 5864 5863 5862 5861 5860 5859 5858 5857 5856 5855 5854 5853 5852 5851 5850 5849 5848 5847 5847 5846
5872 5872 5873 5873 5874 5874 5874 5874 5873 5873 5872 5872 5871 5871 5870 5869 5868 5867 5866 5865 5864 5863 5862 5861 5860 5859 5857 5856 5855 5854 5853 5852 5851 5850 5849 5848 5846 5845 5844 5843 5842 5842 5841
5870 5870 5871 5871 5871 5871 5871 5871 5871 5870 5869 5869 5868 5867 5867 5866 5865 5864 5863 5862 5861 5860 5858 5857 5856 5855 5853 5852 5851 5849 5848 5847 5846 5845 5844 5843 5841 5840 5839 5838 5837 5836 5836
5868 5868 5868 5868 5869 5868 5868 5868 5868 5867 5867 5866 5865 5864 5863 5862 5861 5860 5859 5858 5857 5856 5854 5853 5852 5850 5849 5848 5846 5845 5844 5843 5841 5840 5839 5837 5836 5835 5834 5833 5832 5831 5830
5865 5866 5866 5866 5866 5866 5865 5865 5865 5864 5863 5863 5862 5861 5860 5859 5858 5856 5855 5854 5853 5851 5850 5849 5847 5846 5845 5843 5842 5840 5839 5837 5836 5835 5833 5831 5830 5829 5828 5827 5826 5825 5824
5863 5863 5863 5863 5863 5863 5862 5862 5861 5861 5860 5859 5858 5857 5856 5855 5854 5852 5851 5850 5848 5847 5846 5844 5843 5841 5840 5838 5837 5835 5834 5832 5831 5829 5828 5826 5824 5823 5822 5820 5819 5818 5817
5860 5861 5861 5860 5860 5860 5859 5858 5858 5857 5856 5855 5854 5853 5852 5851 5850 5848 5847 5845 5844 5842 5841 5839 5838 5837 5835 5833 5832 5830 5829 5827 5826 5824 5822 5820 5818 5817 5815 5814 5812 5811 5810
5857 5857 5858 5858 5857 5857 5856 5855 5854 5853 5852 5851 5850 5849 5848 5846 5845 5843 5842 5841 5839 5837 5836 5834 5833 5831 5830 5828 5826 5825 5823 5821 5820 5818 5816 5813 5812 5810 5808 5807 5805 5804 5803
5854 5854 5854 5854 5853 5853 5852 5851 5850 5849 5848 5847 5846 5844 5843 5841 5840 5839 5837 5835 5834 5832 5830 5829 5827 5826 5824 5823 5821 5819 5817 5815 5813 5812 5810 5807 5805 5803 5801 5799 5798 5796 5795
5851 5850 5850 5850 5849 5849 5848 5847 5846 5845 5843 5842 5841 5839 5838 5836 5835 5833 5832 5830 5828 5827 5825 5823 5822 5820 5818 5817 5815 5813 5811 5809 5806 5805 5803 5800 5798 5795 5793 5791 5790 5788 5787
5847 5847 5846 5845 5845 5844 5843 5842 5841 5840 5839 5837 5836 5834 5833 5831 5829 5828 5826 5824 5822 5821 5819 5817 5816 5814 5812 5810 5808 5806 5804 5802 5799 5797 5795 5793 5790 5788 5786 5783 5781 5779 5778
5843 5842 5842 5841 5840 5839 5838 5837 5836 5835 5833 5832 5830 5829 5827 5825 5823 5822 5820 5818 5816 5815 5813 5811 5809 5807 5805 5803 5801 5799 5796 5794 5792 5790 5788 5785 5782 5779 5777 5775 5773 5771 5769
5838 5838 5837 5836 5835 5834 5833 5832 5831 5829 5828 5826 5824 5823 5821 5819 5817 5816 5814 5812 5810 5808 5806 5804 5802 5800 5798 5796 5793 5791 5788 5786 5784 5781 5779 5777 5774 5771 5768 5766 5764 5761 5759
5833 5833 5832 5831 5830 5829 5827 5826 5825 5823 5822 5820 5818 5816 5815 5813 5811 5809 5807 5805 5803 5801 5799 5797 5795 5793 5790 5788 5786 5783 5780 5778 5775 5772 5770 5767 5765 5762 5759 5756 5754 5751 5749
5827 5827 5826 5825 5824 5823 5822 5820 5819 5817 5815 5814 5812 5810 5808 5806 5804 5802 5800 5798 5796 5794 5792 5790 5787 5785 5783 5780 5777 5775 5772 5769 5766 5763 5760 5757 5755 5752 5749 5747 5744 5741 5738
5821 5820 5820 5819 5817 5816 5815 5814 5812 5810 5809 5807 5805 5803 5801 5799 5797 5795 5793 5791 5789 5787 5784 5782 5779 5777 5774 5772 5769 5766 5763 5760 5757 5754 5750 5747 5744 5741 5738 5736 5733 5730 5727
5814 5813 5813 5812 5810 5809 5808 5807 5805 5803 5802 5800 5798 5796 5794 5792 5790 5788 5786 5783 5781 5779 5776 5774 5771 5769 5766 5763 5761 5757 5754 5751 5747 5743 5740 5737 5734 5731 5727 5724 5721 5719 5716
5807 5806 5805 5805 5803 5802 5801 5799 5798 5796 5794 5792 5790 5788 5786 5784 5782 5780 5778 5776 5773 5771 5768 5765 5763 5760 5757 5754 5751 5748 5745 5742 5738 5733 5729 5726 5722 5719 5716 5713 5709 5706 5703
5799 5799 5798 5797 5796 5794 5793 5791 5790 5788 5786 5785 5783 5781 5779 5777 5775 5772 5770 5768 5765 5763 5760 5757 5754 5751 5748 5745 5741 5738 5735 5732 5729 5725 5719 5715 5712 5708 5704 5701 5697 5694 5691
5792 5791 5790 5789 5788 5786 5785 5784 5782 5780 5779 5777 5775 5773 5771 5769 5767 5764 5762 5760 5757 5754 5751 5748 5745 5742 5739 5735 5731 5727 5724 5720 5717 5715 5710 5705 5701 5697 5693 5689 5685 5681 5678
5783 5782 5781 5781 5780 5778 5777 5775 5774 5772 5770 5769 5767 5765 5763 5761 5759 5756 5754 5751 5748 5745 5742 5739 5736 5732 5729 5725 5721 5717 5713 5709 5705 5702 5700 5696 5691 5686 5682 5678 5674 5670 5666
5775 5774 5773 5772 5771 5770 5768 5767 5765 5764 5762 5761 5759 5757 5755 5753 5751 5748 5745 5742 5740 5737 5734 5730 5726 5723 5719 5715 5710 5706 5702 5698 5694 5690 5687 5684 5680 5676 5671 5666 5662 5657 5653